Language selection

Features

My Weather Profile Weather Topics  | 

Southwest Coast: Past 24 Hour Conditions

 

Banquereau - 44139

06:00 AM ADT 23 October 2020Buoy position: 44.27N 57.08W
Disclaimer

This table is a summary of hourly weather conditions for the past 24 hours.
Please note that these observations might not always be representative of weather conditions over their associated marine area.

Date / Time
(ADT)
Wind(knots) Wave height(m) Wave period(s) Pressure(kPa) Air tempC) Water tempC)
23 October 2020
6:00 NE 16 gust 19 1.9 12.0 102.6 11 13
5:00 NE 16 gust 17 2.0 12.0 102.6 12 13
4:00 NE 13 gust 16 1.9 12.0 102.5 12 13
3:00 NE 13 gust 16 2.0 12.0 102.5 13 13
2:00 ENE 10 gust 12 1.9 12.0 102.5 13 14
1:00 ENE 12 gust 13 1.7 11.0 102.5 13 14
0:00 ENE 10 gust 12 1.5 12.0 102.4 13 14
22 October 2020
23:00 ENE 10 gust 12 1.7 12.0 102.4 14 14
22:00 NNE 10 gust 13 1.6 12.0 102.4 14 14
21:00 NNW 8 gust 10 1.5 10.0 102.4 15 14
20:00 NW 10 gust 12 1.6 10.0 102.4 15 14
19:00 NW 10 gust 12 1.5 10.0 102.3 15 14
18:00 WNW 10 gust 12 1.5 10.0 102.3 15 14
17:00 WNW 12 gust 13 1.5 10.0 102.2 16 14
16:00 W 10 gust 12 1.4 10.0 102.2 15 14
15:00 W 12 gust 12 1.4 10.0 102.2 16 14
14:00 W 10 gust 12 1.4 10.0 102.2 16 14
13:00 W 10 gust 12 1.3 11.0 102.3 16 14
12:00 WSW 12 gust 12 1.3 11.0 102.3 16 14
11:00 WSW 10 gust 12 1.3 10.0 102.3 16 14
10:00 WSW 10 gust 12 1.3 12.0 102.3 16 14
9:00 W 8 gust 10 1.3 10.0 102.4 15 14
8:00 W 8 gust 10 1.4 11.0 102.4 15 13
7:00 W 8 gust 10 1.4 11.0 102.4 15 14
6:00 WSW 10 gust 12 1.4 12.0 102.4 15 14

Zoom-in to make a selection

Map of Atlantic - Newfoundland marine weather areas Banquereau - 44139 East Chedabucto Bay - 44488 West Chedabucto Bay - 44489 Blanc-Sablon Airport Cap Whittle Chevery Natashquan Airport Heath Point Îles de la Madeleine Airport Miscou Island Eskasoni (First Nations) Grand Étang Ingonish Beach North Mountain St.Paul Island J.A. Douglas McCurdy Sydney Airport Charlottetown Airport East Point North Cape Argentia Bonavista Burgeo Cape Race Corner Brook Daniel's Harbour Englee Ferolle Point La Scie Port aux Basques Rocky Harbour Sagona Island St. Anthony Airport St. John's Int'l Airport St. Lawrence Stephenville Airport Twillingate Winterland Branch Hill Wreckhouse Grates Cove Pool's Island Marticot Island Long Pond Cartwright Airport Mary's Harbour
Legend:
buoy Buoy
land station Land Station

Atlantic - Newfoundland Area

Another Region

What we are doing

Date modified: